Temp
89 89 89 89 90 90 90 90 91 90 90 92 92 91 91 92 92 93 93 92 91 91 91 91 90 90 90 90 89 89 89 88 89 88 87 88 87 87 87 87 87 87
89 89 89 90 89 90 90 91 91 90 90 90 92 93 92 92 93 93 93 92 92 91 91 91 90 90 90 90 89 88 88 88 87 90 87 87 87 88 88 88 88 87
89 89 90 90 91 91 93 92 91 91 92 92 92 93 94 94 93 92 92 92 92 92 90 90 90 90 90 90 89 89 88 87 87 90 87 86 88 87 88 90 88 88
89 89 91 91 92 91 91 91 91 91 92 92 92 94 94 95 93 93 92 91 91 91 91 91 91 91 90 90 89 89 89 88 88 88 88 87 87 88 88 88 89 89
89 89 91 91 92 91 91 91 92 92 92 92 94 93 92 92 92 93 92 92 91 92 91 91 91 91 90 89 89 88 89 88 88 88 87 86 86 87 88 88 87 88
89 89 89 91 91 91 91 92 92 93 93 94 93 94 93 93 93 93 93 93 93 93 93 92 91 91 91 89 89 88 89 89 89 87 87 86 87 88 88 88 87 86
90 90 90 91 92 92 91 91 92 92 94 94 93 93 94 93 92 92 92 92 93 91 93 91 90 90 91 89 88 87 88 88 89 87 86 86 86 87 89 88 86 86
91 92 91 91 92 92 91 92 92 92 92 93 93 93 93 94 92 93 93 93 93 92 91 92 90 89 92 90 88 87 88 89 89 88 86 86 86 85 86 88 87 85
92 92 91 91 92 93 94 94 94 93 93 92 94 95 93 93 93 93 91 91 91 91 90 91 90 90 91 90 89 88 87 89 89 89 87 86 86 86 87 87 87 85
91 92 93 93 94 94 94 95 96 95 94 93 94 96 95 93 93 93 92 90 91 91 91 90 90 91 90 91 89 89 88 87 88 88 89 88 87 87 87 87 87 86
92 93 93 93 94 95 96 97 98 98 96 95 95 95 96 94 92 93 91 90 91 90 90 90 90 90 90 91 91 90 89 89 88 88 88 88 88 87 86 87 87 87
92 93 94 94 94 96 97 98 99 98 98 96 96 95 95 97 94 93 92 91 90 91 91 90 90 90 89 90 92 91 90 90 89 89 89 89 89 89 88 88 88 87
92 93 93 94 94 95 97 98 99 100 100 98 97 96 96 97 97 93 92 92 91 91 91 90 90 90 89 89 90 90 90 89 90 89 89 89 89 90 91 90 90 89
92 94 93 93 94 93 94 97 98 98 97 97 97 96 97 97 98 96 94 93 92 92 91 91 90 90 89 89 89 90 90 89 89 89 90 89 89 90 91 91 90 90
92 93 93 93 94 93 93 94 96 96 96 96 96 96 97 98 98 98 95 92 92 91 91 92 91 90 90 90 89 89 90 90 89 89 89 89 89 90 90 91 91 91
91 91 92 92 92 92 91 93 95 95 96 96 95 96 95 95 95 96 97 95 92 91 91 91 91 91 84 75 78 89 89 90 90 89 89 89 88 88 90 90 92 93
91 91 91 90 91 91 91 91 92 94 93 93 93 94 94 93 94 95 97 97 94 93 92 91 91 91 74 69 71 74 87 89 89 88 89 88 89 87 87 89 90 91
91 91 90 90 90 90 90 91 92 92 92 92 93 93 92 95 94 93 93 95 95 94 93 92 92 79 69 68 69 70 75 89 91 90 89 89 89 89 88 89 90 91
90 90 90 90 90 90 90 90 90 91 91 92 93 93 93 91 91 93 92 93 94 93 93 94 93 75 67 67 68 68 69 80 92 91 90 89 89 89 89 88 88 89
90 90 89 89 90 90 90 90 90 89 92 94 93 92 91 91 92 91 92 91 92 92 92 94 94 75 65 65 66 66 67 73 91 91 90 90 89 89 89 88 88 88
90 90 89 89 89 89 89 89 89 89 90 92 93 92 91 90 90 90 91 91 92 93 93 95 97 71 63 63 63 63 65 69 88 90 90 90 90 90 89 89 89 88
90 89 89 89 89 89 89 89 89 88 88 90 92 93 93 92 91 92 91 91 91 92 93 92 96 68 61 62 62 62 63 78 85 87 88 89 89 89 89 89 89 88
90 90 89 89 89 89 89 89 88 88 89 90 90 92 93 92 91 92 91 92 91 91 90 90 94 74 59 60 61 60 65 81 84 86 86 87 88 89 89 89 89 89
91 90 89 89 89 89 89 90 91 91 90 90 90 91 92 94 93 92 91 91 92 92 93 91 93 77 57 59 59 58 67 82 84 85 85 85 86 88 88 88 88 79
92 91 91 91 89 90 91 90 90 90 91 91 92 92 92 92 93 92 92 92 95 94 82 89 93 81 56 59 57 58 68 82 84 85 84 84 85 86 87 88 88 82
92 90 90 91 90 90 91 91 91 92 92 92 91 92 92 93 93 93 92 93 95 94 94 93 92 93 72 57 56 57 60 81 85 84 84 84 85 85 85 86 87 88
MSLP
1010.71 1010.95 1011.27 1011.51 1011.67 1011.79 1012.03 1012.31 1012.39 1012.71 1012.87 1012.79 1013.07 1013.15 1013.23 1013.19 1013.19 1013.35 1013.55 1013.83 1014.11 1014.39 1014.51 1014.71 1014.91 1015.15 1015.27 1015.39 1015.59 1015.83 1016.11 1016.35 1016.51 1016.71 1016.99 1017.15 1017.39 1017.59 1017.71 1017.75 1017.71 1017.67
1010.23 1010.43 1010.67 1010.91 1011.23 1011.31 1011.43 1011.59 1011.95 1012.19 1012.43 1012.47 1012.39 1012.47 1012.59 1012.71 1012.87 1013.03 1013.27 1013.55 1013.75 1014.07 1014.19 1014.43 1014.67 1014.87 1015.03 1015.19 1015.39 1015.75 1015.99 1016.15 1016.47 1016.23 1016.83 1017.07 1017.11 1017.19 1017.39 1017.39 1017.51 1017.39
1009.79 1010.07 1010.31 1010.59 1010.71 1010.91 1011.03 1011.19 1011.39 1011.63 1011.83 1011.91 1011.99 1012.07 1012.19 1012.27 1012.59 1012.71 1012.91 1013.15 1013.47 1013.67 1013.95 1014.15 1014.43 1014.59 1014.75 1014.87 1015.11 1015.47 1015.75 1015.99 1016.27 1016.03 1016.43 1016.79 1016.75 1016.95 1016.99 1016.99 1017.15 1017.27
1009.23 1009.39 1009.63 1009.87 1010.03 1010.39 1010.55 1010.87 1011.07 1011.23 1011.31 1011.59 1011.71 1011.63 1011.75 1011.83 1012.11 1012.43 1012.67 1012.83 1013.15 1013.39 1013.55 1013.79 1014.07 1014.31 1014.55 1014.67 1014.87 1015.19 1015.39 1015.63 1015.67 1015.75 1016.15 1016.35 1016.47 1016.55 1016.67 1016.71 1016.79 1016.91
1008.55 1008.87 1009.03 1009.31 1009.47 1009.71 1010.07 1010.47 1010.63 1010.75 1010.95 1010.99 1011.15 1011.31 1011.51 1011.71 1011.91 1012.15 1012.43 1012.67 1012.83 1013.11 1013.27 1013.51 1013.71 1013.99 1014.23 1014.47 1014.63 1015.03 1015.11 1015.43 1015.39 1015.55 1015.91 1016.23 1016.19 1016.31 1016.35 1016.47 1016.75 1016.91
1007.95 1008.23 1008.51 1008.79 1009.03 1009.35 1009.67 1009.91 1010.07 1010.19 1010.47 1010.67 1010.79 1010.83 1011.07 1011.35 1011.59 1011.79 1012.03 1012.39 1012.51 1012.67 1012.87 1013.11 1013.39 1013.55 1013.75 1014.15 1014.39 1014.67 1014.79 1015.03 1015.03 1015.35 1015.67 1015.91 1015.95 1015.87 1016.03 1016.15 1016.51 1016.79
1007.47 1007.71 1008.03 1008.19 1008.55 1008.75 1009.15 1009.35 1009.51 1009.71 1009.87 1009.99 1010.19 1010.59 1010.59 1010.99 1011.31 1011.47 1011.59 1011.87 1012.03 1012.31 1012.47 1012.75 1013.07 1013.31 1013.35 1013.71 1014.15 1014.47 1014.47 1014.55 1014.59 1014.99 1015.43 1015.55 1015.63 1015.71 1015.63 1015.87 1016.19 1016.51
1006.71 1006.99 1007.35 1007.71 1008.07 1008.35 1008.71 1008.87 1009.03 1009.27 1009.35 1009.59 1009.99 1010.07 1010.19 1010.51 1010.83 1011.03 1011.19 1011.39 1011.67 1011.91 1012.11 1012.27 1012.59 1012.91 1013.03 1013.27 1013.79 1014.11 1014.31 1014.23 1014.35 1014.59 1015.03 1015.23 1015.27 1015.63 1015.55 1015.51 1015.75 1016.19
1006.11 1006.51 1006.83 1007.27 1007.67 1007.83 1008.15 1008.27 1008.47 1008.71 1008.83 1009.27 1009.51 1009.59 1009.75 1009.99 1010.27 1010.51 1010.83 1011.03 1011.31 1011.51 1011.79 1012.03 1012.19 1012.51 1012.63 1012.87 1013.23 1013.59 1013.91 1013.95 1013.87 1014.07 1014.43 1014.79 1015.03 1015.19 1015.23 1015.23 1015.55 1015.83
1005.67 1005.87 1006.31 1006.67 1007.11 1007.19 1007.47 1007.59 1007.71 1008.07 1008.27 1008.67 1008.91 1008.99 1009.35 1009.55 1009.71 1010.03 1010.39 1010.75 1011.07 1011.27 1011.47 1011.71 1011.87 1012.07 1012.27 1012.43 1012.71 1013.03 1013.35 1013.55 1013.55 1013.63 1013.75 1014.03 1014.35 1014.59 1014.75 1014.91 1015.15 1015.47
1005.03 1005.27 1005.71 1005.99 1006.31 1006.43 1006.71 1006.91 1007.07 1007.31 1007.63 1008.03 1008.27 1008.59 1008.71 1009.07 1009.47 1009.55 1009.99 1010.35 1010.75 1010.95 1011.15 1011.35 1011.47 1011.63 1011.91 1012.03 1012.19 1012.35 1012.71 1012.95 1013.11 1013.23 1013.35 1013.51 1013.71 1013.95 1014.15 1014.35 1014.63 1014.87
1004.39 1004.67 1004.99 1005.31 1005.59 1005.75 1005.95 1006.15 1006.35 1006.63 1006.95 1007.31 1007.59 1008.03 1008.23 1008.39 1008.91 1009.23 1009.43 1009.87 1010.11 1010.31 1010.55 1010.79 1010.95 1011.15 1011.43 1011.63 1011.71 1011.91 1012.19 1012.39 1012.55 1012.75 1012.91 1013.07 1013.23 1013.39 1013.55 1013.67 1013.95 1014.23
1003.75 1003.95 1004.15 1004.55 1004.87 1005.07 1005.15 1005.47 1005.75 1005.95 1006.27 1006.63 1006.91 1007.31 1007.71 1007.99 1008.15 1008.67 1008.87 1009.19 1009.51 1009.75 1010.03 1010.27 1010.51 1010.71 1010.95 1011.15 1011.31 1011.43 1011.71 1012.03 1012.19 1012.35 1012.51 1012.63 1012.75 1012.83 1012.87 1012.99 1013.19 1013.43
1003.07 1003.27 1003.55 1003.83 1004.03 1004.43 1004.71 1004.87 1005.15 1005.43 1005.67 1005.91 1006.27 1006.87 1007.15 1007.35 1007.59 1007.95 1008.31 1008.55 1008.87 1009.19 1009.35 1009.59 1009.95 1010.23 1010.43 1010.63 1010.83 1010.99 1011.23 1011.55 1011.75 1011.91 1012.11 1012.23 1012.27 1012.31 1012.27 1012.35 1012.51 1012.67
1002.67 1002.91 1003.07 1003.31 1003.67 1004.11 1004.43 1004.59 1004.75 1004.99 1005.27 1005.55 1005.87 1006.19 1006.43 1006.59 1006.79 1007.07 1007.71 1008.19 1008.35 1008.63 1008.87 1009.03 1009.35 1009.59 1009.71 1009.99 1010.43 1010.67 1010.71 1011.03 1011.27 1011.47 1011.63 1011.87 1011.95 1011.87 1011.83 1011.83 1011.87 1011.99
1002.31 1002.59 1002.83 1003.07 1003.47 1003.83 1004.11 1004.23 1004.43 1004.71 1004.99 1005.35 1005.59 1005.75 1005.99 1006.23 1006.47 1006.67 1006.95 1007.51 1007.99 1008.19 1008.35 1008.55 1008.71 1008.71 1008.87 1009.31 1009.63 1009.95 1010.27 1010.43 1010.67 1010.91 1011.07 1011.23 1011.47 1011.59 1011.51 1011.39 1011.31 1011.31
1002.03 1002.39 1002.63 1003.07 1003.15 1003.47 1003.79 1004.07 1004.31 1004.47 1004.75 1005.07 1005.35 1005.55 1005.75 1005.99 1006.27 1006.55 1006.59 1006.71 1007.23 1007.67 1007.99 1008.03 1008.03 1008.03 1008.39 1008.87 1009.19 1009.47 1009.67 1009.91 1010.19 1010.39 1010.51 1010.67 1010.79 1011.03 1011.19 1011.07 1010.95 1010.91
1001.71 1002.07 1002.55 1002.83 1003.11 1003.39 1003.55 1003.79 1004.07 1004.35 1004.63 1004.87 1005.15 1005.39 1005.51 1005.63 1006.07 1006.23 1006.31 1006.35 1006.59 1006.99 1007.31 1007.43 1007.43 1007.43 1007.91 1008.35 1008.71 1008.99 1009.15 1009.27 1009.43 1009.71 1009.87 1010.07 1010.23 1010.35 1010.47 1010.59 1010.63 1010.63
1001.19 1001.71 1002.11 1002.51 1002.79 1003.07 1003.35 1003.67 1003.99 1004.27 1004.51 1004.71 1004.91 1004.91 1005.15 1005.63 1005.75 1005.91 1006.15 1006.11 1006.19 1006.55 1006.79 1006.75 1006.79 1006.83 1007.39 1007.79 1008.15 1008.47 1008.71 1008.79 1008.75 1008.91 1009.23 1009.43 1009.55 1009.75 1009.87 1010.07 1010.19 1010.35
1000.79 1001.19 1001.63 1001.95 1002.27 1002.67 1003.07 1003.51 1003.83 1004.07 1004.03 1004.07 1004.35 1004.63 1005.03 1005.31 1005.47 1005.71 1005.83 1005.99 1005.99 1006.07 1006.19 1006.11 1006.11 1006.27 1006.91 1007.31 1007.71 1008.03 1008.23 1008.39 1008.23 1008.35 1008.51 1008.63 1008.79 1008.99 1009.19 1009.43 1009.59 1009.83
1000.43 1000.79 1001.23 1001.59 1001.87 1002.19 1002.63 1003.03 1003.27 1003.55 1003.83 1003.87 1004.07 1004.39 1004.75 1005.07 1005.23 1005.43 1005.43 1005.51 1005.59 1005.63 1005.79 1005.79 1005.51 1005.75 1006.43 1006.91 1007.31 1007.71 1007.95 1008.19 1007.95 1007.95 1007.99 1008.11 1008.19 1008.31 1008.51 1008.67 1008.83 1009.03
1000.15 1000.67 1001.11 1001.43 1001.75 1002.03 1002.39 1002.67 1002.87 1003.11 1003.51 1003.59 1003.75 1003.87 1003.99 1004.31 1004.59 1004.67 1004.99 1005.27 1005.23 1005.31 1005.47 1005.55 1005.11 1005.39 1005.95 1006.39 1006.79 1007.27 1007.71 1008.03 1007.83 1007.91 1007.91 1007.87 1007.91 1007.91 1007.95 1007.99 1008.07 1008.35
999.71 1000.27 1000.75 1001.07 1001.35 1001.75 1002.03 1002.23 1002.51 1002.79 1002.99 1003.03 1003.59 1003.67 1003.87 1004.07 1004.23 1004.39 1004.43 1004.67 1004.83 1004.91 1005.15 1005.07 1004.87 1004.95 1005.51 1005.91 1006.35 1006.83 1007.55 1007.51 1007.47 1007.55 1007.63 1007.67 1007.55 1007.43 1007.51 1007.51 1007.59 1007.71
999.15 999.59 1000.15 1000.51 1000.83 1001.23 1001.43 1001.67 1001.87 1002.11 1002.47 1002.51 1003.07 1003.35 1003.47 1003.39 1003.55 1003.83 1003.87 1003.95 1004.19 1004.31 1004.27 1004.67 1004.47 1004.35 1004.95 1005.43 1005.83 1006.27 1006.51 1006.71 1006.87 1007.07 1007.19 1007.23 1007.11 1006.91 1006.87 1006.99 1007.15 1007.39
998.71 999.15 999.63 1000.03 1000.43 1000.63 1000.87 1001.31 1001.55 1001.71 1001.79 1002.03 1002.35 1002.63 1002.83 1002.83 1002.99 1003.27 1003.43 1003.43 1003.39 1003.51 1003.59 1003.91 1003.83 1003.87 1004.43 1004.87 1005.35 1005.71 1006.03 1005.95 1006.11 1006.43 1006.79 1006.71 1006.63 1006.63 1006.39 1006.55 1006.59 1006.71
998.23 998.75 999.11 999.47 999.95 1000.23 1000.43 1000.75 1000.91 1001.23 1001.51 1001.75 1001.95 1002.11 1002.47 1002.55 1002.67 1002.79 1003.03 1003.03 1002.79 1002.99 1003.07 1003.15 1003.35 1003.31 1003.83 1004.35 1004.79 1005.23 1005.47 1005.43 1005.51 1006.07 1006.15 1006.03 1006.07 1006.15 1006.39 1006.27 1005.99 1005.87
Wind_Speed
14 13 13 13 13 12 12 12 11 11 11 10 10 10 10 10 10 10 11 11 11 11 10 10 10 9 9 8 8 7 7 8 7 8 8 8 8 10 9 10 10 7
17 15 12 12 11 11 11 12 12 11 11 11 10 9 10 10 11 11 11 11 12 12 11 11 11 11 10 9 9 8 7 8 8 7 8 10 9 9 11 11 10 9
17 16 16 16 15 16 16 13 12 12 11 12 11 10 10 10 11 12 11 12 12 12 12 11 11 11 11 10 9 9 8 9 9 9 9 10 9 9 9 10 10 11
18 18 16 17 15 15 14 13 13 12 12 11 12 12 11 10 11 12 12 13 12 12 12 12 12 12 11 11 10 9 9 9 9 9 9 8 9 9 9 9 9 9
19 18 16 16 15 14 13 14 15 14 14 13 12 12 11 10 11 12 12 12 12 12 12 13 12 12 12 11 11 9 10 9 10 9 9 10 9 9 9 9 10 10
18 17 16 16 15 15 15 16 16 15 15 15 14 12 12 12 12 12 13 13 13 13 13 13 13 13 13 12 11 10 10 10 10 11 11 11 11 10 9 9 10 11
19 19 19 17 17 17 16 16 14 14 14 13 12 13 12 13 13 13 13 13 14 13 13 13 13 13 12 12 12 12 11 11 10 12 12 11 11 12 12 11 11 11
20 19 18 17 18 17 17 16 15 14 14 13 14 13 13 14 14 14 13 14 14 14 13 13 13 13 14 12 13 12 13 10 11 13 13 12 11 12 13 11 11 12
19 19 18 19 20 18 19 18 16 16 14 14 14 14 14 14 14 14 13 14 13 13 13 13 13 14 13 13 13 14 14 13 13 14 14 14 14 14 14 13 12 12
20 19 21 21 21 18 20 19 17 16 15 15 16 14 14 14 14 14 14 14 14 13 13 13 14 14 14 14 14 14 14 14 14 14 14 15 15 14 14 14 14 13
22 21 21 21 21 19 21 20 19 17 15 17 16 16 16 14 14 14 14 14 14 14 14 14 15 15 15 15 14 14 15 15 14 14 14 15 15 14 14 14 14 14
22 21 22 22 22 21 21 21 20 19 18 16 17 17 17 16 15 14 14 15 15 15 15 15 14 14 15 15 15 15 14 14 14 15 15 15 15 15 15 15 14 15
21 21 20 20 20 20 19 19 20 20 20 18 17 17 17 17 17 16 14 15 15 15 15 15 15 15 14 15 15 15 15 15 15 15 15 14 15 16 16 16 16 15
20 20 19 18 18 17 18 18 19 18 18 17 16 17 18 18 18 17 16 15 16 15 15 15 15 15 15 15 15 15 14 15 15 15 15 15 15 16 16 16 16 17
16 16 16 17 18 17 17 17 17 17 16 15 15 16 15 17 17 17 17 16 16 16 16 15 15 15 14 15 15 16 15 15 16 15 15 15 15 16 16 16 16 16
15 15 15 16 16 17 17 17 17 16 17 16 16 16 14 14 14 15 17 17 17 17 16 15 14 13 15 19 17 14 15 14 14 15 15 15 15 15 16 17 17 16
15 15 15 16 16 16 15 16 16 15 14 14 14 15 15 13 14 16 17 16 17 17 17 15 14 13 18 19 20 19 15 15 14 14 15 15 16 15 15 16 16 16
15 15 15 15 15 15 15 15 15 15 14 14 15 16 14 14 15 15 15 15 15 17 17 16 15 15 19 21 21 21 18 15 15 14 15 16 16 16 15 14 15 15
16 16 16 15 15 15 14 13 14 15 15 15 17 15 14 15 14 15 15 15 15 16 17 17 16 17 20 22 23 23 22 19 14 15 15 16 16 16 15 14 13 13
16 16 17 16 15 15 14 14 15 16 16 15 14 14 14 15 16 15 14 15 15 15 15 16 17 15 21 22 23 24 23 19 15 16 16 16 17 16 15 15 15 13
17 16 16 15 16 16 16 16 16 15 16 15 14 15 15 14 15 16 15 15 16 16 15 16 16 16 21 22 23 23 23 20 16 16 14 15 15 15 15 15 16 15
16 15 14 14 15 15 16 17 16 15 15 14 13 13 13 13 14 15 15 16 16 16 17 17 16 16 21 23 24 23 23 15 16 17 16 14 14 15 15 14 15 15
16 15 15 15 16 16 17 17 16 15 14 13 14 14 13 14 14 14 13 15 16 16 17 16 16 14 20 23 23 24 19 13 15 16 15 16 14 15 16 16 15 15
16 16 16 16 16 17 17 16 15 13 14 13 14 15 15 15 14 13 14 15 16 18 17 17 16 14 21 22 24 25 22 16 14 15 16 16 16 16 14 16 17 18
15 15 16 16 16 16 15 15 15 14 13 13 13 14 14 13 13 13 13 14 16 17 17 18 18 15 20 22 25 25 22 14 15 15 16 16 15 15 15 15 15 15
14 15 15 15 15 14 13 13 12 12 14 13 13 12 12 13 13 13 14 13 14 16 14 17 18 13 15 23 24 24 26 16 13 14 17 17 16 15 16 15 16 15
Wind_Direction
200 201 201 202 204 205 206 206 206 205 207 207 207 206 208 206 207 207 199 199 198 203 201 201 196 199 200 198 194 195 199 201 201 193 199 204 202 217 218 214 217 230
200 200 200 201 202 204 207 208 208 209 207 210 213 209 207 207 203 206 203 200 196 200 202 201 198 197 197 198 193 195 195 197 204 192 197 203 208 212 222 218 218 218
196 199 200 200 202 203 205 206 208 209 211 209 211 212 209 205 206 201 204 201 198 198 198 200 200 198 197 199 193 197 198 195 202 200 194 202 207 212 221 221 217 217
196 199 201 203 204 202 203 205 206 210 210 209 209 209 210 210 204 202 201 200 200 198 197 198 200 201 200 199 195 197 198 200 201 200 196 198 207 214 219 223 222 215
195 197 200 202 203 202 200 205 208 206 210 209 208 208 207 210 205 206 203 199 200 198 198 196 197 198 198 200 197 199 196 201 202 199 199 198 203 209 220 221 223 223
195 196 198 200 200 199 201 204 207 209 208 209 208 206 207 205 208 207 204 204 200 202 200 199 197 198 196 198 197 201 200 203 199 199 201 201 202 208 214 217 219 223
193 195 197 198 199 199 201 204 206 208 209 210 205 209 206 205 205 207 205 203 203 202 202 198 198 199 197 195 197 199 203 204 201 194 201 201 205 210 212 215 215 217
193 195 196 196 197 198 201 203 204 204 206 206 208 206 206 207 204 206 206 204 206 201 201 200 197 198 199 197 197 198 201 201 206 196 198 204 202 208 212 216 211 211
193 193 193 196 198 198 202 203 203 203 201 204 207 206 204 207 205 205 203 205 206 203 199 201 197 198 200 200 199 200 200 203 204 202 200 204 205 209 213 212 213 210
193 194 195 196 200 202 204 205 205 203 202 203 205 208 205 203 207 204 202 201 204 203 200 200 199 198 200 201 202 202 202 204 205 205 204 204 206 207 209 210 212 210
193 194 196 198 201 202 205 206 208 208 204 205 205 209 210 203 203 204 202 199 201 201 201 200 201 200 200 203 203 204 204 205 206 206 206 204 204 205 207 208 210 211
193 195 198 199 202 205 206 207 209 209 208 204 206 208 208 209 202 202 202 200 200 200 200 200 200 202 202 203 204 203 205 207 207 208 207 206 205 206 207 208 210 209
193 195 196 199 200 204 206 206 209 210 210 208 204 207 206 208 206 202 201 200 199 200 200 200 200 201 202 202 206 205 204 206 208 209 209 207 208 209 210 209 208 208
194 194 195 197 199 199 203 206 207 209 210 209 205 206 208 208 209 203 200 200 199 200 200 199 199 201 202 203 204 206 204 205 210 211 210 210 209 210 212 211 210 209
192 194 196 196 197 197 201 204 206 207 208 208 208 208 208 209 209 207 201 200 200 199 200 200 201 202 201 200 202 204 206 206 208 212 212 212 212 212 213 213 213 213
189 192 194 195 195 197 198 199 203 204 206 207 208 209 208 208 209 209 208 202 200 200 200 201 203 204 198 192 194 200 203 207 207 211 214 213 213 214 215 215 216 217
188 192 193 194 195 195 195 197 200 201 203 203 206 208 208 204 208 210 213 209 203 202 202 203 204 206 188 187 191 196 201 205 206 209 212 214 215 214 216 217 218 218
189 190 192 195 194 196 195 194 197 200 203 201 205 206 205 209 209 210 212 213 207 206 206 207 209 200 183 187 190 194 198 204 208 210 210 213 216 216 217 218 218 218
187 188 191 192 194 194 195 194 195 200 202 202 204 203 203 206 209 208 211 214 213 209 211 210 214 194 183 186 191 193 197 203 211 210 211 213 214 216 217 215 215 217
188 189 189 190 189 188 191 195 197 202 202 203 204 202 206 207 208 209 209 211 215 216 214 217 218 192 184 186 191 194 197 201 213 213 215 215 214 213 214 215 212 213
189 189 190 187 187 187 189 195 198 201 202 204 204 205 205 206 207 209 210 211 214 218 220 222 225 189 182 186 191 194 198 201 212 218 219 220 218 216 214 213 213 212
188 189 189 188 189 189 192 197 199 199 199 200 206 208 209 208 210 213 214 214 216 218 222 225 227 187 183 186 190 193 193 199 211 219 224 225 222 221 216 215 214 211
188 188 189 190 191 192 196 199 199 198 200 198 205 210 210 210 211 212 215 217 217 218 222 225 230 190 184 187 189 190 187 202 208 216 222 225 228 225 227 224 218 212
188 189 190 191 192 196 198 200 198 198 200 197 202 207 212 214 212 213 215 217 219 221 219 223 229 194 183 187 190 187 188 197 203 211 219 221 225 225 223 228 227 219
189 190 192 192 195 198 198 198 199 199 200 199 205 209 214 216 216 217 217 217 221 223 218 221 229 212 182 187 191 189 192 199 201 209 216 220 221 223 224 227 228 219
189 189 192 195 197 196 197 199 197 198 199 201 205 208 212 215 216 222 222 222 223 223 222 221 228 226 181 191 190 191 193 196 204 206 217 218 218 221 225 224 225 228